OneWeb SL0507

operational
NORAD ID: 54125 Int'l Des: 2022-138 Owner: ONEWEBN Country: UK Constellation: oneweb
LEOCIRCULARPOLARONEWEB_TYPE

About OneWeb SL0507

Description loading...

Live Position

Loading 3D Globe...

Upcoming Passes

Altitude History

Altitude vs Time

uPlot chart will show altitude changes over time

Two-Line Element Set

1 54125U 22138N 25260.71062280 .00000025 00000-0 29906-4 0 9991
2 54125 87.9279 359.1770 0001606 100.5317 259.5996 13.19724996140914
Epoch: Sep 17, 2025 • Age: 16 hours

Current Status

Altitude 1195.4 km
Velocity 7.25 km/s
Sub-Earth Point -23.90°S, 139.09°W
Launch Date Oct 22, 2022
Age 2.9 years
Type internet

Technical Details

Classification Payload
Mass 148.00 kg
Dry Mass 140.00 kg
Total Mass 148.00 kg
Length 1.30 m
Diameter 1.00 m
Span 5.00 m
Shape Trapezoid+2 pan
Manufacturer ONEWUS
Bus Type ARROW
Phase Status In Orbit
Owner/State ONEWEBN/UK

Large Constellations

Loading constellations...